BEIDOU-2 IGSO-1

Last updated on Thu Apr 02 2026 00:02:50 GMT+0000 (Coordinated Universal Time)

1 36828U 10036A 26086.63883915 -.00000150 00000+0 00000+0 0 9997 2 36828 54.2909 163.6978 0057461 222.7538 133.1758 1.00295665 57273
UTC large
Height (km)
Speed (km/s)
/
Latitude / Longitude
Inclination (degrees)
Orbital Period (minutes)
Azimuth
Elevation
Range (km)
Doppler Factor

Next 0 passes for location: London (51.5072 / 0.1276)

Sorry there are no passes over London.
BEIDOU-2 IGSO-1